Zurück zum Katalog

KOSMOS-2571 SUBSAT

AktivMilitärLEO
NORAD 58428·PAYLOAD·🇷🇺 Russia
Dieser Satellitenname wurde noch nicht durch offizielle Quellen bestätigt.

Gestartet Oct 27, 2023 von Plesetsk Cosmodrome

Loading…

Nächste Überflüge (nächste 24 Stunden)

TLE

AktuellSource: Space-Track

Epoche: Sep 14, 2026, 21:07 UTC

1 58428U 23165D   26257.88003451 -.00000026  00000-0  34923-4 0  9999
2 58428  67.1488  68.9032 0019718 264.6865  95.1970 13.97437757143365

Verfolge KOSMOS-2571 SUBSAT in Echtzeit mit AllMySat

Download on the App Store